Location: Central Falls
(41.8900°N, 71.3929°W)
Time: 21:38:29
(UTC+00:00)

Tiros 1 - Visible Passes

Search period start: 06 December 2023 00:00
Search period end: 16 December 2023 00:00
Orbit: 625 x 659 km, 48.4° (Epoch: 06 December)

Date Brightness Start Highest point End Pass type
(mag) Time Alt. Az. Time Alt. Az. Time Alt. Az.
06 Dec 10.2 08:17:19 12° ENE 08:17:19 12° ENE 08:17:37 10° ENE visible
06 Dec 7.3 09:54:54 52° NNW 09:55:08 53° NNW 09:59:51 10° ENE visible
07 Dec 9.6 08:41:00 18° ENE 08:41:00 18° ENE 08:42:17 10° ENE visible
07 Dec 7.8 10:18:35 33° NW 10:19:58 40° N 10:24:30 10° ENE visible
08 Dec 9.0 09:04:37 26° NE 09:04:37 26° NE 09:06:51 10° ENE visible
08 Dec 8.0 10:42:12 21° NW 10:44:51 37° N 10:49:19 10° ENE visible
09 Dec 8.4 09:28:11 34° NNE 09:28:11 34° NNE 09:31:29 10° ENE visible
09 Dec 7.9 11:05:45 13° WNW 11:09:45 41° N 11:14:17 10° E visible
10 Dec 8.0 09:51:43 37° N 09:51:47 37° N 09:56:16 10° ENE visible
10 Dec 7.6 11:29:50 10° WNW 11:34:33 55° NNE 11:39:14 10° E visible
11 Dec 9.9 08:37:40 14° ENE 08:37:40 14° ENE 08:38:27 10° ENE visible
11 Dec 8.0 10:15:14 32° NNW 10:16:41 40° N 10:21:12 10° ENE visible
12 Dec 9.3 09:01:10 22° NE 09:01:10 22° NE 09:03:12 10° ENE visible
12 Dec 7.6 10:38:44 23° NW 10:41:30 51° NNE 10:46:10 10° E visible
13 Dec 8.4 09:24:40 34° NE 09:24:40 34° NE 09:28:08 10° ENE visible
13 Dec 7.2 11:02:14 15° WNW 11:06:11 80° NNE 11:10:58 10° ESE visible
14 Dec 7.6 09:48:12 48° N 09:48:27 49° NNE 09:53:06 10° E visible
14 Dec 7.5 11:25:58 10° WNW 11:30:41 58° SW 11:35:22 10° SE visible
15 Dec 10.0 08:34:10 15° ENE 08:34:10 15° ENE 08:35:01 10° ENE visible
15 Dec 7.2 10:11:45 45° NW 10:13:08 73° NNE 10:17:56 10° ESE visible
